Regional Weather Roundup
Issued by NWS

Home | Current Version | Previous Version | Text Only | Print | Product List | Glossary On
Versions: 1 2 3 4 5 6 7 8 9 10 11 12 13 14 15 16 17 18 19 20 21 22 23 24 25 26 27 28 29 30 31 32 33 34 35 36 37 38 39 40 41 42 43 44 45 46 47 48 49 50
000
ASUS43 KOAX 280410
RWRNE

WEATHER ROUNDUP FOR NEBRASKA
NATIONAL WEATHER SERVICE OMAHA NE
1100 PM CDT FRI MAY 27 2022

NOTES: SATELLITE DATA IS BEING USED TO AUGMENT CLOUD COVER ABOVE
       12000 FEET.
       "FAIR" INDICATES FEW OR NO CLOUDS BELOW 12,000 FEET WITH NO
       SIGNIFICANT WEATHER AND/OR OBSTRUCTIONS TO VISIBILITY.


NEZ001>004-019>022-054>056-280500-
NEBRASKA PANHANDLE

CITY           SKY/WX    TMP DP  RH WIND       PRES   REMARKS
SCOTTSBLUFF    PTCLDY    62  41  46 CALM      29.82R
ALLIANCE       PTCLDY    59  42  53 W7        29.80R
CHADRON        CLEAR     63  47  55 SE7       29.77R
GORDON         PTCLDY    67  49  51 N13       29.78R
KIMBALL        PTCLDY    66  39  37 W9        29.89R
SIDNEY         CLOUDY    76  37  24 W15G36    29.85R
$$

NEZ057>060-069>072-079>082-280500-
SOUTHWEST NEBRASKA

CITY           SKY/WX    TMP DP  RH WIND       PRES   REMARKS
NORTH PLATTE   CLOUDY    83  42  23 S13G32    29.72F
IMPERIAL       CLOUDY    67  49  52 N10       29.78S
LEXINGTON      CLOUDY    77  55  46 S9        29.81R
MCCOOK         MOCLDY    77  49  37 E7        29.78F
OGALLALA       CLOUDY    68  51  53 S5        29.77S
$$

NEZ005>010-023>029-035>040-094-280500-
NORTH CENTRAL NEBRASKA

CITY           SKY/WX    TMP DP  RH WIND       PRES   REMARKS
VALENTINE      MOCLDY    74  47  38 S9        29.67F
AINSWORTH      CLOUDY    66  50  56 S6        29.70F
BROKEN BOW     CLOUDY    77  52  41 SW6       29.80F
O`NEILL        TSTM      70  56  59 S20G31    29.77R
ORD            CLOUDY    73  57  57 SE7       29.78R
THEDFORD       CLOUDY    76  46  34 S14       29.73S
$$

NEZ041-046>049-061>064-073>077-083>087-280500-
SOUTH CENTRAL NEBRASKA

CITY           SKY/WX    TMP DP  RH WIND       PRES   REMARKS
GRAND ISLAND   MOCLDY    72  56  57 S15       29.79R
AURORA         MOCLDY    69  59  70 SE13      29.80R
HASTINGS       MOCLDY    71  56  58 S13       29.79S
HEBRON         PTCLDY    70  57  62 S10       29.81S
HOLDREGE       CLOUDY    71  56  60 S15       29.77R
KEARNEY        CLOUDY    72  57  59 S16G23    29.78R
YORK           PTCLDY    70  57  64 S15       29.81R
$$

NEZ011>018-030>034-042>045-280500-
NORTHEAST NEBRASKA

CITY           SKY/WX    TMP DP  RH WIND       PRES   REMARKS
NORFOLK        CLOUDY    72  56  57 S15       29.78R
ALBION         MOCLDY    72  57  60 S6        29.80R
BLAIR          MOCLDY    69  55  59 SE13      29.84S
COLUMBUS       MOCLDY    71  57  61 MISG      29.77F
FREMONT        CLOUDY    71  58  64 SE12      29.82S
TEKAMAH        CLOUDY    68  56  65 SE15      29.82S
WAYNE          CLOUDY    70  58  66 S13       29.79S
$$

NEZ050>053-065>068-078-088>093-280500-
SOUTHEAST NEBRASKA

CITY           SKY/WX    TMP DP  RH WIND       PRES   REMARKS
LINCOLN        PTCLDY    70  57  63 SE13      29.83S
OMAHA EPPLEY   MOCLDY    69  53  56 SE13      29.84S
BEATRICE       CLEAR     69  60  72 SE8       29.84S
FALLS CITY     CLEAR     66  58  75 SE8       29.88R
NEBRASKA CITY  CLEAR     66  56  69 S9        29.87S
PLATTSMOUTH    PTCLDY    66  56  70 SE9       29.87S
$$

NEZ044-045-051>053-067-280500-
OMAHA AREA

CITY           SKY/WX    TMP DP  RH WIND       PRES   REMARKS
OMAHA EPPLEY   MOCLDY    69  53  56 SE13      29.84S
BLAIR          MOCLDY    69  55  59 SE13      29.84S
FREMONT        CLOUDY    71  58  64 SE12      29.82S
MILLARD        MOCLDY    67  56  66 SE8       29.84F
OFFUTT AFB     CLEAR     67  53  61 SE8       29.87S
PLATTSMOUTH    PTCLDY    66  56  70 SE9       29.87S
WAHOO          MOCLDY    67  57  72 SE13      29.83S
$$



USA.gov is the U.S. government's official web portal to all federal, state and local government web resources and services.